Regional Weather Roundup
Issued by NWS

Current Version | Previous Version | Text Only | Print | Product List | Glossary Off
Versions: 1 2 3 4 5 6 7 8 9 10 11 12 13 14 15 16 17 18 19 20 21 22 23 24 25 26 27 28 29 30 31 32 33 34 35 36 37 38 39 40 41 42 43 44 45 46 47 48 49 50

000
ASUS44 KBMX 280410
RWRAL

ALABAMA REGIONAL WEATHER ROUNDUP
NATIONAL WEATHER SERVICE BIRMINGHAM AL
1100 PM CDT WED MAY 27 2015

NOTE: "FAIR" INDICATES FEW OR NO CLOUDS BELOW 12,000 FEET
WITH NO SIGNIFICANT WEATHER AND/OR OBSTRUCTIONS TO VISIBILITY.

THE REMARK "TC" DENOTES TEMPERATURE IN DEGREES CELSIUS.

ALZ001>011-014-016>018-020-280500-
NORTH ALABAMA

CITY           SKY/WX    TMP DP  RH WIND       PRES   REMARKS
MUSCLE SHOALS  CLOUDY    69  64  84 E9        30.17F
HUNTSVILLE     LGT RAIN  68  66  93 E7        30.19F
DECATUR        LGT RAIN  66  66 100 E3        30.19F
HALEYVILLE     LGT RAIN  64  64 100 VRB3      30.19F
GADSDEN        CLOUDY   N/A N/A N/A CALM      30.22F
$$

ALZ012-013-022-023-030>036-040>044-280500-
WEST CENTRAL ALABAMA

CITY           SKY/WX    TMP DP  RH WIND       PRES   REMARKS
TUSCALOOSA     CLOUDY    69  67  93 CALM      30.16S
$$

ALZ015-024>027-033>036-040>044-280500-
CENTRAL ALABAMA

CITY           SKY/WX    TMP DP  RH WIND       PRES   REMARKS
BIRMINGHAM     CLOUDY    68  67  96 E8        30.21F
MONTGOMERY     CLOUDY    72  68  87 NE7       30.18S
SHELBY CO ARPT CLOUDY    66  66 100 VRB6      30.20S
MAXWELL AFB    NOT AVBL
GREENVILLE     FAIR      72  70  94 E6        30.16S
$$

ALZ019-021-028-029-037-038-045>048-280500-
EAST CENTRAL ALABAMA

CITY           SKY/WX    TMP DP  RH WIND       PRES   REMARKS
ANNISTON       LGT RAIN  67  65  93 SE5       30.27R
ALEXANDER CITY CLOUDY    67  64  89 N6        30.22S
AUBURN         CLOUDY    66  63  88 N8        30.21F
$$

ALZ051>064-280500-
SOUTHWEST ALABAMA

CITY           SKY/WX    TMP DP  RH WIND       PRES   REMARKS
MOBILE         MOCLDY    73  71  93 SE6       30.12S
BROOKLEY FIELD MOCLDY    77  72  84 SE10      30.13F
EVERGREEN      MOCLDY    70  68  93 CALM      30.16S
$$

ALZ049-050-065>069-280500-
SOUTHEAST ALABAMA

CITY           SKY/WX    TMP DP  RH WIND       PRES   REMARKS
DOTHAN         PTCLDY    69  68  96 CALM      30.21S
OZARK          NOT AVBL
TROY           MOCLDY    70  69  97 E6        30.20R
EUFAULA        FAIR      70  70 100 CALM      30.18F FOG
$$


USA.gov is the U.S. government's official web portal to all federal, state and local government web resources and services.